Weather History for Jefferson City, MO

Change the Weather History Date:

Tuesday, May 14, 2013

  Actual Average Record
Temperature  
Mean Temperature 74 °F -  
Max Temperature 91 °F 74 °F 91 °F (2013)
Min Temperature 57 °F 50 °F 37 °F (1920)
Cooling Degree Days 9    
Growing Degree Days 24 (Base 50)    
Moisture  
Dew Point 48 °F    
Average Humidity 40    
Maximum Humidity 75    
Minimum Humidity 20    
Precipitation  
Precipitation 0.00 in - - ()
Sea Level Pressure  
Sea Level Pressure 29.86 in    
Wind  
Wind Speed 8 mph (SSW)    
Max Wind Speed 18 mph    
Max Gust Speed 30 mph    
Visibility 10 miles    
Events      
Averages and records for this station are not official NWS values.
T = Trace of Precipitation, MM = Missing Value Source: NWS Daily Summary

Daily Weather History Graph

Daily Weather History Graph

Search for Another Location

Airport:

Trip Planner

Search our weather history database for the weather conditions in past years. The results will help you decide how hot, cold, wet, or windy it might be!

Date:

Astronomy

May. 14, 2013 Rise Set
Actual Time 5:57 AM CDT 8:12 PM CDT
Civil Twilight 5:27 AM CDT 8:42 PM CDT
Nautical Twilight 4:51 AM CDT 9:19 PM CDT
Astronomical Twilight 4:11 AM CDT 9:59 PM CDT
Moon 9:37 AM CDT (5/14) No Moon Set
Length of Visible Light 15h 15m
Length of Day
14h 15m
Waxing Crescent, 19% of the Moon is Illuminated
May 14
Waxing Crescent
May 17
First Quarter
May 24
Full
May 31
Last Quarter
Jun 8
New

Hourly Weather History & Observations

Time (CDT) Temp. Dew Point Humidity Pressure Visibility Wind Dir Wind Speed Gust Speed Precip Events Conditions
12:53 AM 63.0 °F 48.0 °F 58% 29.94 in 10.0 mi ESE 4.6 mph - N/A   Clear
1:53 AM 62.1 °F 48.0 °F 60% 29.92 in 10.0 mi ESE 4.6 mph - N/A   Clear
2:53 AM 61.0 °F 48.9 °F 64% 29.90 in 10.0 mi ESE 3.5 mph - N/A   Clear
3:53 AM 61.0 °F 48.9 °F 64% 29.89 in 10.0 mi ESE 4.6 mph - N/A   Clear
4:53 AM 57.0 °F 48.9 °F 74% 29.88 in 10.0 mi East 4.6 mph - N/A   Clear
5:53 AM 60.1 °F 50.0 °F 69% 29.88 in 10.0 mi East 3.5 mph - N/A   Clear
6:53 AM 59.0 °F 51.1 °F 75% 29.88 in 10.0 mi East 3.5 mph - N/A   Clear
7:53 AM 64.9 °F 54.0 °F 68% 29.88 in 10.0 mi Calm Calm - N/A   Clear
8:53 AM 73.9 °F 50.0 °F 43% 29.87 in 10.0 mi WSW 10.4 mph - N/A   Clear
9:53 AM 79.0 °F 48.9 °F 35% 29.87 in 10.0 mi West 11.5 mph 19.6 mph N/A   Clear
10:53 AM 82.0 °F 48.9 °F 31% 29.87 in 10.0 mi WSW 10.4 mph 20.7 mph N/A   Clear
11:53 AM 84.9 °F 46.0 °F 26% 29.87 in 10.0 mi West 16.1 mph 23.0 mph N/A   Clear
12:53 PM 88.0 °F 46.9 °F 24% 29.86 in 10.0 mi WSW 16.1 mph 21.9 mph N/A   Clear
1:53 PM 89.1 °F 46.9 °F 23% 29.84 in 10.0 mi SW 17.3 mph 26.5 mph N/A   Clear
2:53 PM 91.0 °F 45.0 °F 20% 29.83 in 10.0 mi WSW 18.4 mph 29.9 mph N/A   Clear
3:53 PM 91.9 °F 46.0 °F 21% 29.81 in 10.0 mi SW 16.1 mph 27.6 mph N/A   Clear
4:53 PM 91.9 °F 46.9 °F 21% 29.80 in 10.0 mi SW 16.1 mph 29.9 mph N/A   Clear
5:53 PM 91.0 °F 48.0 °F 23% 29.79 in 10.0 mi SW 17.3 mph 25.3 mph N/A   Clear
6:53 PM 89.1 °F 48.9 °F 25% 29.79 in 10.0 mi SW 16.1 mph 21.9 mph N/A   Clear
7:53 PM 86.0 °F 46.9 °F 26% 29.80 in 10.0 mi SW 15.0 mph 20.7 mph N/A   Clear
8:53 PM 82.9 °F 45.0 °F 26% 29.81 in 10.0 mi SW 9.2 mph 17.3 mph N/A   Clear
9:53 PM 81.0 °F 46.9 °F 30% 29.83 in 10.0 mi SW 8.1 mph - N/A   Clear
10:53 PM 80.1 °F 46.0 °F 30% 29.85 in 10.0 mi SW 8.1 mph - N/A   Clear
11:53 PM 77.0 °F 46.0 °F 33% 29.86 in 10.0 mi Calm Calm - N/A   Clear